Theta_e
287 286 284 283 282 282 281 280 279 280 280 280 280 279 279 279 279 278 278 278 278 278
286 285 283 281 281 280 279 280 279 279 279 279 279 279 279 278 277 277 277 277 277 277
284 283 282 281 280 279 279 279 279 279 279 278 278 278 278 277 277 277 276 276 276 276
282 282 282 281 280 279 279 279 279 279 279 279 278 277 277 277 277 276 276 276 276 276
282 281 281 280 279 279 279 279 279 279 279 278 278 278 277 276 276 276 276 276 275 275
281 281 280 280 279 280 279 279 279 279 278 278 278 278 277 277 277 276 276 276 275 275
281 281 281 280 280 279 279 279 279 278 278 278 278 278 277 277 276 276 276 276 276 275
282 282 281 280 280 280 279 279 279 278 278 278 277 278 277 277 276 275 275 275 276 275
282 281 281 280 279 279 279 278 278 277 277 276 277 281 282 278 276 275 275 274 274 275
282 281 281 280 279 279 278 278 277 277 277 276 277 282 284 283 276 275 275 274 275 275
281 281 280 280 279 279 278 277 277 277 277 277 276 282 284 284 277 275 275 274 274 274
282 281 280 280 279 279 278 277 278 278 277 277 277 282 283 283 277 276 275 275 274 274
282 282 280 280 280 280 279 279 278 278 278 277 277 281 283 283 277 273 274 274 274 277
282 282 282 281 281 280 279 278 277 277 276 275 274 274 282 283 276 275 271 273 273 274
Wind_Speed
13 10 9 10 10 8 7 7 7 6 6 7 7 6 6 5 5 6 6 8 5 4
12 12 11 9 8 7 6 7 7 8 9 7 7 7 6 5 6 6 5 5 5 4
12 11 10 11 11 10 8 9 10 9 8 8 7 7 6 5 5 7 4 4 5 4
11 10 11 11 9 10 10 11 11 10 10 9 8 7 6 6 7 7 6 5 5 5
11 11 11 10 10 10 11 9 11 10 10 9 8 7 8 8 7 7 6 6 5 5
12 12 13 11 11 11 10 9 9 10 11 10 9 8 6 7 7 7 6 6 6 6
14 14 13 11 11 11 10 11 10 9 8 9 8 7 7 7 6 6 6 5 6 5
13 12 11 11 11 10 10 9 8 8 6 6 7 6 8 7 7 7 6 5 5 5
13 12 12 11 11 11 10 8 8 7 7 7 6 13 16 10 7 7 6 6 6 5
14 14 12 11 11 11 11 9 9 7 8 8 7 16 16 16 6 6 6 6 5 4
14 12 12 12 12 10 9 10 9 9 9 8 7 16 17 16 6 5 6 6 6 5
15 14 14 13 12 9 8 6 8 7 9 10 8 19 18 13 5 6 8 6 6 6
15 15 14 13 12 9 8 10 7 8 9 10 10 17 18 14 4 6 6 5 6 12
12 14 13 12 8 9 10 8 9 9 8 10 9 9 18 18 5 7 4 6 5 6
Wind_Direction
159 159 162 158 155 154 155 151 150 132 123 121 117 112 108 107 107 107 102 106 108 114
161 160 162 150 151 155 140 145 140 140 137 131 126 129 127 125 120 108 107 119 121 117
163 158 153 156 160 159 148 147 151 145 137 139 139 135 130 123 125 117 120 127 139 131
161 155 156 163 162 163 156 157 156 153 150 152 149 151 141 135 137 133 138 144 153 150
160 156 160 165 167 164 165 163 158 155 156 158 158 159 155 150 153 146 156 164 157 176
164 165 171 169 167 166 161 164 161 162 166 164 165 165 161 155 157 159 167 167 179 188
173 173 172 167 167 168 166 165 170 174 167 165 163 163 160 160 162 164 177 177 195 187
170 167 162 161 166 165 169 170 165 160 162 160 166 170 170 173 166 173 186 194 205 203
164 160 163 161 165 163 165 156 154 166 166 172 189 191 192 179 177 188 186 202 210 209
163 163 164 161 163 172 173 159 167 161 169 196 200 201 202 200 190 191 194 200 204 204
163 165 162 164 173 168 164 169 172 177 188 199 212 211 210 210 179 199 209 210 199 206
169 167 167 171 169 160 153 167 186 181 193 202 213 213 216 211 173 205 222 211 201 209
172 173 173 168 163 161 176 192 185 191 205 206 216 213 216 217 164 215 219 213 219 220
169 169 166 157 161 170 186 181 190 201 207 207 204 208 218 223 188 219 198 224 226 225